User: anonymous   Login
Location: Unspecified
(0.0000°N, 0.0000°E)
Time: 16:55:16
(UTC+01:00)
Language:

Cosmos 1538 Rocket - Orbit

View from above orbital plane
View from above orbital plane
View from above satellite
View from above satellite

Ground track
Ground track

The orbit data is extracted from the following two-line orbital elements,

1 14760U 84019B   17051.26071304  .00000018  00000-0  15370-4 0  9996
2 14760  74.0456 336.3422 0028892 226.3514 245.4882 14.35809546726802
Epoch (UTC): 20 February 2017 06:15:25
Eccentricity: 0.0028892
inclination: 74.0456°
perigee height: 752 km
apogee height: 793 km
right ascension of ascending node: 336.3422°
argument of perigee: 226.3514°
revolutions per day: 14.35809546
mean anomaly at epoch: 245.4882°
orbit number at epoch: 72680

The dashed part of the orbit path shows where the satellite is in the earth's shadow,  

DLR